sat.trackr.live / text

‹ back to catalog

STARLINK-34830

NORAD 65405 · 2025-192B

PAYLOAD ACTIVE UNKNOWN

§ Identity

Operator
Country
US
Launch date
2025-08-31
Launch site
AFETR
Launch vehicle
Mass (kg)
RCS (m²)

Purposes: comms

External: N2YO · Heavens-Above · Gunter

§ Orbital elements

Epoch: 2026-05-25T05:09:24.157152Z

Period
94.01 min
Inclination
53.1575°
Eccentricity
0.0000684
Mean motion
15.31689993 rev/d
Perigee alt
470.3 km
Apogee alt
471.2 km
Semi-major
6,848.9 km
B*
3.8088e-4
RAAN
236.6831°
Arg perigee
282.4338°
Mean anomaly
77.6587°
Rev number
4,111

§ Raw data

STARLINK-348301 65405U 25192B   26145.21486293  .00011469  00000+0  38088-3 0  99922 65405  53.1575 236.6831 0000684 282.4338  77.6587 15.31689993 41116

JSON: /api/v1/satellites/65405 · /tle

For live sub-satellite position, see the globe view (requires WebGL).

§ Visibility from observer

Set your observer location to see the next 7 days of passes ≥ 10°. The values pass through the URL so the page stays shareable.

No JS? Fill the form by hand. The geolocation button needs JavaScript.